This is the latest recevied weather packets stored in our database for station/object KD0RII. If no packets are shown the sender has not sent any weather packets the latest 10 day(s).
| Time | Temp. | Humidity | Pressure | Rain* | Wind** | Luminosity | Snow |
|---|---|---|---|---|---|---|---|
| 1778094327 | 15.56° C | 40% | 1020 hPa | 0 mm | - | 836 W/m² | - |
| 1778094024 | 16.11° C | 39% | 1020.3 hPa | 0 mm | - | 836 W/m² | - |
| 1778093721 | 15.56° C | 39% | 1020.4 hPa | 0 mm | - | 838 W/m² | - |
| 1778093417 | 15.56° C | 40% | 1020.5 hPa | 0 mm | - | 838 W/m² | - |
| 1778093115 | 15.56° C | 39% | 1020.6 hPa | 0 mm | - | 835 W/m² | - |
| 1778092812 | 16.11° C | 40% | 1020.4 hPa | 0 mm | - | 843 W/m² | - |
| 1778092508 | 15.56° C | 41% | 1020.6 hPa | 0 mm | - | 834 W/m² | - |
| 1778092205 | 16.11° C | 41% | 1020.8 hPa | 0 mm | - | 654 W/m² | - |
| 1778091902 | 16.11° C | 41% | 1020.5 hPa | 0 mm | - | 888 W/m² | - |
| 1778091599 | 15.56° C | 39% | 1020.8 hPa | 0 mm | - | 846 W/m² | - |
| 1778091297 | 15° C | 43% | 1020.8 hPa | 0 mm | - | 817 W/m² | - |
| 1778090988 | 15° C | 45% | 1021 hPa | 0 mm | - | 1043 W/m² | - |
| 1778090685 | 15° C | 43% | 1020.9 hPa | 0 mm | - | 460 W/m² | - |
| 1778090381 | 14.44° C | 45% | 1021 hPa | 0 mm | - | 551 W/m² | - |
| 1778090078 | 15° C | 43% | 1020.8 hPa | 0 mm | - | 455 W/m² | - |
| 1778089774 | 15° C | 42% | 1021.1 hPa | 0 mm | - | 393 W/m² | - |
| 1778089472 | 15° C | 43% | 1021 hPa | 0 mm | - | 406 W/m² | - |
| 1778089163 | 15° C | 42% | 1021 hPa | 0 mm | - | 415 W/m² | - |
| 1778088861 | 14.44° C | 45% | 1020.9 hPa | 0 mm | - | 388 W/m² | - |
| 1778088557 | 15° C | 44% | 1021.2 hPa | 0 mm | - | 431 W/m² | - |
| 1778088254 | 15° C | 42% | 1021.4 hPa | 0 mm | - | 402 W/m² | - |
| 1778087951 | 15° C | 44% | 1021.3 hPa | 0 mm | - | 522 W/m² | - |
| 1778087648 | 14.44° C | 48% | 1021 hPa | 0 mm | - | 468 W/m² | - |
| 1778087346 | 13.89° C | 46% | 1021.5 hPa | 0 mm | - | 519 W/m² | - |
| 1778087041 | 13.89° C | 45% | 1021.4 hPa | 0 mm | - | 364 W/m² | - |
* Rain latest hour (hover to see other rain measurements)
** Current wind speed in m/s (hover to see current wind gust speed)